Tracking 19245 objects as of 18-Aug-2018
HD Live streaming from Space Station
objects crossing your sky now

H-2A R/B

Track H-2A R/B now!
10-day predictions


NORAD ID: 36105
Int'l Code: 2009-066B
Perigee: 510.4 km
Apogee: 551.4 km
Inclination: 97.3 °
Period: 95.1 minutes
Semi major axis: 6901 km
RCS: Unknown
Launch date: November 28, 2009
Source: Japan (JPN)
Launch site: TANEGASHIMA SPACE CENTER (TNSTA)

Note: This is a ROCKET BODY
aabbcc
Your satellite tracking list
Your tracking list is empty




NASA's NSSDC Master Catalog

Two Line Element Set (TLE):
1 36105U 09066B   18194.83465529 0.00000730  00000-0  39753-4 0    05
2 36105  97.2937 216.0197 0029660  64.9094 295.0905 15.14087261    00
Source of the keplerian elements: McCants